Location: Unspecified
(39.3605°N, 0.0000°E)
Time: 02:23:37
(UTC+00:00)

NOAA 16 DEB - Visible Passes

Search period start: 04 April 2026 00:00
Search period end: 14 April 2026 00:00
Orbit: 754 x 773 km, 98.8° (Epoch: 23 March)

Date Brightness Start Highest point End Pass type
(mag) Time Alt. Az. Time Alt. Az. Time Alt. Az.
4 Apr ? 01:08:40 11° N 01:08:40 11° N 01:08:53 10° N visible
5 Apr ? 00:30:40 11° NNE 00:30:40 11° NNE 00:30:51 10° NNE visible
6 Apr ? 01:32:47 12° NNW 01:32:47 12° NNW 01:33:04 10° NNW visible
7 Apr ? 00:54:47 13° N 00:54:47 13° N 00:55:24 10° N visible
8 Apr ? 00:16:45 11° NNE 00:16:45 11° NNE 00:17:02 10° NNE visible
8 Apr ? 01:56:53 10° NNW 01:56:53 10° NNW 01:56:58 10° NNW visible
9 Apr ? 01:18:50 15° N 01:18:50 15° N 01:19:38 10° N visible
10 Apr ? 00:40:47 15° NNE 00:40:47 15° NNE 00:41:43 10° N visible
11 Apr ? 00:02:43 10° NNE 00:02:43 10° NNE 00:02:51 10° NNE visible
11 Apr ? 01:42:52 14° NNW 01:42:52 14° NNW 01:43:37 10° NNW visible
12 Apr ? 01:04:47 18° N 01:04:47 18° N 01:06:02 10° N visible
13 Apr ? 00:26:41 15° NNE 00:26:41 15° NNE 00:27:51 10° NNE visible
13 Apr ? 02:06:50 12° NNW 02:06:50 12° NNW 02:07:19 10° NNW visible
